Flag for Estonia Weather past 2 weeks in Narva, Estonia

Now
32 °F

Overcast.


Feels Like: 27 °F
Forecast: 28 / 31 °F
Wind: 5 mph from South

Location: Narva

Current Time: Jan 29, 2015 at 4:59:57 PM

Latest Report: Jan 29, 2015 at 4:00 PM


Visibility: 13 mi

Pressure: 29.23 "Hg

Humidity: 74%

Dew point: 24 °F

Location of NarvaLocation

Historic Weather in Narva — Graph

°F

Narva temperature yesterday

Maximum temperature yesterday: 30 °F (at 9:00 PM)
Minimum temperature yesterday: 26 °F (at 2:00 AM)
Average temperature yesterday: 28 °F

Past Weeks' High & Low Weather Summary

 TemperatureHumidityPressure
High38 °F (Jan 17, 12:00 AM)100% (Jan 19, 8:00 PM)30.50 "Hg (Jan 19, 8:00 PM)
Low8 °F (Jan 21, 8:00 PM)72% (Jan 29, 3:00 PM)29.23 "Hg (Jan 29, 1:00 PM)
Average27 °F90%29.96 "Hg
* Reported Jan 14 3:00 PM — Jan 29 3:00 PM, Narva, Weather by CustomWeather, © 2014

Note: Actual official high and low records may vary slightly from our data, if they occured in-between our weather recording intervals... More about our weather records

Advertising

Narva weather history for previous 24 hours

 ConditionsComfort  
Time TempWeatherWind HumidityBarometerVisibility
3:00 PM
Jan 29
32 °FOvercast.6 mph72%29.23 "Hg12 mi
2:00 PM32 °FPartly sunny.7 mph73%29.23 "Hg12 mi
1:00 PM31 °FPassing clouds.7 mph73%29.23 "Hg12 mi
12:00 PM31 °FPassing clouds.7 mph78%29.26 "Hg11 mi
11:00 AM31 °FOvercast.6 mph82%29.29 "Hg11 mi
10:00 AM30 °FOvercast.7 mph85%29.29 "Hg10 mi
9:00 AM29 °FOvercast.7 mph87%29.29 "Hg9 mi
8:00 AM29 °FLow clouds.8 mph89%29.32 "Hg9 mi
7:00 AM28 °FPassing clouds.6 mph89%29.32 "Hg12 mi
6:00 AM29 °FLow clouds.6 mph87%29.35 "Hg11 mi
4:00 AM29 °FLow clouds.6 mph88%29.38 "Hg12 mi
3:00 AM29 °FLow clouds.6 mph87%29.41 "Hg12 mi
2:00 AM29 °FOvercast.6 mph85%29.41 "Hg12 mi
1:00 AM29 °FOvercast.6 mph86%29.41 "Hg12 mi
12:00 AM29 °FOvercast.8 mph85%29.44 "Hg12 mi
11:00 PM
Jan 28
29 °FOvercast.8 mph86%29.44 "Hg12 mi
10:00 PM30 °FOvercast.7 mph84%29.44 "Hg12 mi
9:00 PM30 °FOvercast.7 mph86%29.47 "Hg11 mi
8:00 PM29 °FOvercast.7 mph86%29.50 "Hg10 mi
7:00 PM29 °FOvercast.7 mph86%29.50 "Hg8 mi
6:00 PM29 °FOvercast.7 mph87%29.55 "Hg8 mi
5:00 PM29 °FOvercast.7 mph86%29.56 "Hg8 mi
4:00 PM29 °FOvercast.5 mph86%29.58 "Hg9 mi
Weather by CustomWeather, © 2014

See weather overviewHow to use our weather pages